Time,TemperatureF,DewpointF,PressureIn,WindDirection,WindDirectionDegrees,WindSpeedMPH,WindSpeedGustMPH,Humidity,HourlyPrecipIn,Conditions,Clouds,dailyrainin,SoftwareType,DateUTC
2013-06-20 15:55:00,81.3,40.0,29.91,West,259,5.0,5.0,23,0.00,,---,0.00,VWS V14.01,2013-06-20 22:55:00,
2013-06-20 15:56:00,81.3,40.0,29.91,SW,232,6.0,7.0,23,0.36,,---,0.00,VWS V14.01,2013-06-20 22:56:00,
2013-06-20 16:05:00,81.2,39.9,29.91,NNE,19,5.0,5.0,23,0.00,,---,0.00,VWS V14.01,2013-06-20 23:05:00,
2013-06-20 16:10:00,81.4,40.1,29.91,WNW,294,0.0,7.0,23,0.00,,---,0.00,VWS V14.01,2013-06-20 23:10:00,
2013-06-20 16:15:00,81.6,39.1,29.91,SW,236,2.0,9.0,22,0.00,,---,0.00,VWS V14.01,2013-06-20 23:15:00,
2013-06-20 16:20:00,81.2,38.8,29.91,WSW,248,3.0,11.0,22,0.00,,---,0.00,VWS V14.01,2013-06-20 23:20:00,
2013-06-20 16:25:00,81.1,38.7,29.92,West,271,2.0,6.0,22,0.00,,---,0.00,VWS V14.01,2013-06-20 23:25:00,
2013-06-20 16:30:00,81.4,40.1,29.92,East,86,5.0,7.0,23,0.00,,---,0.00,VWS V14.01,2013-06-20 23:30:00,
2013-06-20 16:35:00,81.0,38.6,29.91,NNE,12,2.0,13.0,22,0.00,,---,0.00,VWS V14.01,2013-06-20 23:35:00,
2013-06-20 16:40:00,81.1,39.8,29.91,NNW,343,2.0,7.0,23,0.00,,---,0.00,VWS V14.01,2013-06-20 23:40:00,
2013-06-20 16:41:00,81.1,39.8,29.91,NW,323,2.0,7.0,23,0.00,,---,0.00,VWS V14.01,2013-06-20 23:41:00,
2013-06-20 16:45:00,81.1,39.8,29.92,NE,45,4.0,14.0,23,0.00,,---,0.00,VWS V14.01,2013-06-20 23:45:00,
2013-06-20 16:46:00,81.1,39.8,29.92,ENE,59,6.0,14.0,23,0.00,,---,0.00,VWS V14.01,2013-06-20 23:46:00,
2013-06-20 16:50:00,81.0,39.8,29.91,NE,37,1.0,9.0,23,0.00,,---,0.00,VWS V14.01,2013-06-20 23:50:00,
2013-06-20 16:51:00,81.0,39.8,29.91,NW,312,1.0,9.0,23,0.00,,---,0.00,VWS V14.01,2013-06-20 23:51:00,
2013-06-20 16:55:00,80.9,39.7,29.91,SW,218,5.0,14.0,23,0.00,,---,0.00,VWS V14.01,2013-06-20 23:55:00,
2013-06-20 16:56:00,80.9,39.7,29.91,SW,218,5.0,14.0,23,0.00,,---,0.00,VWS V14.01,2013-06-20 23:56:00,
2013-06-20 17:00:00,81.2,39.9,29.91,WSW,254,2.0,6.0,23,0.00,,---,0.00,VWS V14.01,2013-06-21 00:00:00,
2013-06-20 17:01:00,81.2,39.9,29.91,WSW,254,2.0,6.0,23,0.00,,---,0.00,VWS V14.01,2013-06-21 00:01:00,
2013-06-20 17:05:00,81.3,40.0,29.91,WSW,241,4.0,11.0,23,0.00,,---,0.00,VWS V14.01,2013-06-21 00:05:00,
2013-06-20 17:06:00,81.3,40.0,29.91,WSW,241,4.0,11.0,23,0.00,,---,0.00,VWS V14.01,2013-06-21 00:06:00,
2013-06-20 17:10:00,80.6,39.4,29.91,WNW,292,6.0,11.0,23,0.00,,---,0.00,VWS V14.01,2013-06-21 00:10:00,
2013-06-20 17:11:00,80.6,39.4,29.91,WNW,292,6.0,11.0,23,0.00,,---,0.00,VWS V14.01,2013-06-21 00:11:00,
2013-06-20 17:15:00,80.3,40.3,29.91,NNE,15,3.0,11.0,24,0.00,,---,0.00,VWS V14.01,2013-06-21 00:15:00,
2013-06-20 17:16:00,80.3,40.3,29.91,NNE,15,3.0,11.0,24,0.00,,---,0.00,VWS V14.01,2013-06-21 00:16:00,
2013-06-20 17:20:00,80.3,39.2,29.91,SSW,194,4.0,11.0,23,0.00,,---,0.00,VWS V14.01,2013-06-21 00:20:00,
2013-06-20 17:21:00,80.3,39.2,29.91,SSW,194,4.0,11.0,23,0.00,,---,0.00,VWS V14.01,2013-06-21 00:21:00,
2013-06-20 17:25:00,80.1,39.0,29.91,West,264,2.0,10.0,23,0.00,,---,0.00,VWS V14.01,2013-06-21 00:25:00,
2013-06-20 17:26:00,80.1,39.0,29.91,West,264,2.0,10.0,23,0.00,,---,0.00,VWS V14.01,2013-06-21 00:26:00,
2013-06-20 17:30:00,80.4,40.3,29.91,WSW,250,3.0,4.0,24,0.00,,---,0.00,VWS V14.01,2013-06-21 00:30:00,
2013-06-20 17:31:00,80.4,40.3,29.91,WSW,250,3.0,4.0,24,0.00,,---,0.00,VWS V14.01,2013-06-21 00:31:00,
2013-06-20 17:35:00,80.3,40.3,29.91,NW,315,10.0,10.0,24,0.00,,---,0.00,VWS V14.01,2013-06-21 00:35:00,
2013-06-20 17:36:00,80.3,40.3,29.91,NW,315,10.0,10.0,24,0.00,,---,0.00,VWS V14.01,2013-06-21 00:36:00,
2013-06-20 17:40:00,79.9,38.8,29.91,WNW,299,11.0,12.0,23,0.00,,---,0.00,VWS V14.01,2013-06-21 00:40:00,
2013-06-20 17:41:00,79.9,38.8,29.91,WNW,299,11.0,12.0,23,0.00,,---,0.00,VWS V14.01,2013-06-21 00:41:00,
2013-06-20 17:45:00,79.5,39.6,29.91,NW,317,4.0,11.0,24,0.00,,---,0.00,VWS V14.01,2013-06-21 00:45:00,
2013-06-20 17:46:00,79.5,39.6,29.91,NW,317,4.0,11.0,24,0.00,,---,0.00,VWS V14.01,2013-06-21 00:46:00,
2013-06-20 17:50:00,79.2,39.3,29.91,NW,326,2.0,9.0,24,0.00,,---,0.00,VWS V14.01,2013-06-21 00:50:00,
2013-06-20 17:51:00,79.2,39.3,29.91,NW,326,2.0,9.0,24,0.00,,---,0.00,VWS V14.01,2013-06-21 00:51:00,
2013-06-20 17:55:00,78.7,38.9,29.91,SW,228,9.0,13.0,24,0.00,,---,0.00,VWS V14.01,2013-06-21 00:55:00,
2013-06-20 17:56:00,78.7,38.9,29.91,SW,228,9.0,13.0,24,0.00,,---,0.00,VWS V14.01,2013-06-21 00:56:00,
2013-06-20 18:00:00,78.4,38.7,29.90,North,5,5.0,13.0,24,0.00,,---,0.00,VWS V14.01,2013-06-21 01:00:00,
2013-06-20 18:01:00,78.4,38.7,29.90,North,5,5.0,13.0,24,0.00,,---,0.00,VWS V14.01,2013-06-21 01:01:00,
2013-06-20 18:05:00,78.2,38.5,29.91,NW,322,4.0,12.0,24,0.00,,---,0.00,VWS V14.01,2013-06-21 01:05:00,
2013-06-20 18:07:00,78.1,38.4,29.90,SW,233,5.0,6.0,24,0.00,,---,0.00,VWS V14.01,2013-06-21 01:07:00,
2013-06-20 18:10:00,78.1,39.5,29.90,West,275,7.0,7.0,25,0.00,,---,0.00,VWS V14.01,2013-06-21 01:10:00,
2013-06-20 18:12:00,78.1,38.4,29.90,West,265,3.0,11.0,24,0.00,,---,0.00,VWS V14.01,2013-06-21 01:12:00,
2013-06-20 18:15:00,78.1,39.5,29.90,SW,236,6.0,11.0,25,0.00,,---,0.00,VWS V14.01,2013-06-21 01:15:00,
2013-06-20 18:17:00,78.1,39.5,29.90,West,260,8.0,10.0,25,0.00,,---,0.00,VWS V14.01,2013-06-21 01:17:00,
2013-06-20 18:20:00,77.7,39.1,29.91,WSW,252,6.0,10.0,25,0.00,,---,0.00,VWS V14.01,2013-06-21 01:20:00,
2013-06-20 18:22:00,77.6,39.0,29.91,SW,229,3.0,11.0,25,0.00,,---,0.00,VWS V14.01,2013-06-21 01:22:00,
2013-06-20 18:25:00,77.2,38.7,29.90,WNW,284,3.0,15.0,25,0.00,,---,0.00,VWS V14.01,2013-06-21 01:25:00,
2013-06-20 18:27:00,76.9,38.4,29.90,WSW,254,4.0,17.0,25,0.00,,---,0.00,VWS V14.01,2013-06-21 01:27:00,
2013-06-20 18:30:00,76.7,39.3,29.90,WNW,291,5.0,17.0,26,0.00,,---,0.00,VWS V14.01,2013-06-21 01:30:00,
2013-06-20 18:33:00,76.6,39.2,29.90,West,276,11.0,11.0,26,0.00,,---,0.00,VWS V14.01,2013-06-21 01:33:00,
2013-06-20 18:35:00,76.2,38.8,29.90,West,277,5.0,14.0,26,0.00,,---,0.00,VWS V14.01,2013-06-21 01:35:00,
2013-06-20 18:38:00,76.1,38.8,29.90,SW,227,6.0,13.0,26,0.00,,---,0.00,VWS V14.01,2013-06-21 01:38:00,
2013-06-20 18:40:00,76.0,39.6,29.91,West,278,3.0,13.0,27,0.00,,---,0.00,VWS V14.01,2013-06-21 01:40:00,
2013-06-20 18:43:00,75.9,39.6,29.91,WSW,241,7.0,9.0,27,0.00,,---,0.00,VWS V14.01,2013-06-21 01:43:00,
2013-06-20 18:45:00,75.6,39.3,29.91,SW,215,3.0,13.0,27,0.00,,---,0.00,VWS V14.01,2013-06-21 01:45:00,
2013-06-20 18:48:00,75.5,40.2,29.91,WSW,241,4.0,13.0,28,0.00,,---,0.00,VWS V14.01,2013-06-21 01:48:00,
2013-06-20 18:50:00,75.4,40.1,29.91,West,273,6.0,13.0,28,0.00,,---,0.00,VWS V14.01,2013-06-21 01:50:00,
2013-06-20 18:53:00,75.2,40.8,29.91,West,261,3.0,9.0,29,0.00,,---,0.00,VWS V14.01,2013-06-21 01:53:00,
2013-06-20 18:55:00,75.0,40.6,29.91,West,274,3.0,12.0,29,0.00,,---,0.00,VWS V14.01,2013-06-21 01:55:00,
2013-06-20 18:58:00,74.8,41.3,29.91,NW,315,5.0,11.0,30,0.00,,---,0.00,VWS V14.01,2013-06-21 01:58:00,
2013-06-20 19:00:00,74.5,41.1,29.91,West,263,4.0,14.0,30,0.00,,---,0.00,VWS V14.01,2013-06-21 02:00:00,
2013-06-20 19:03:00,74.3,41.7,29.90,WSW,242,4.0,12.0,31,0.00,,---,0.00,VWS V14.01,2013-06-21 02:03:00,
2013-06-20 19:05:00,74.0,41.5,29.91,West,279,2.0,12.0,31,0.00,,---,0.00,VWS V14.01,2013-06-21 02:05:00,
2013-06-20 19:08:00,73.6,42.0,29.91,West,269,2.0,9.0,32,0.00,,---,0.00,VWS V14.01,2013-06-21 02:08:00,
2013-06-20 19:10:00,73.3,41.7,29.91,WSW,252,5.0,11.0,32,0.00,,---,0.00,VWS V14.01,2013-06-21 02:10:00,
2013-06-20 19:14:00,73.0,42.2,29.91,WSW,258,3.0,10.0,33,0.00,,---,0.00,VWS V14.01,2013-06-21 02:14:00,
2013-06-20 19:15:00,72.7,42.0,29.91,SSW,199,3.0,11.0,33,0.00,,---,0.00,VWS V14.01,2013-06-21 02:15:00,
2013-06-20 19:19:00,72.5,42.6,29.91,WSW,249,4.0,15.0,34,0.00,,---,0.00,VWS V14.01,2013-06-21 02:19:00,
2013-06-20 19:20:00,72.3,42.4,29.91,West,261,6.0,15.0,34,0.00,,---,0.00,VWS V14.01,2013-06-21 02:20:00,
2013-06-20 19:24:00,72.2,42.3,29.91,West,278,4.0,12.0,34,0.00,,---,0.00,VWS V14.01,2013-06-21 02:24:00,
2013-06-20 19:25:00,72.0,42.1,29.91,WSW,257,2.0,12.0,34,0.00,,---,0.00,VWS V14.01,2013-06-21 02:25:00,
2013-06-20 19:29:00,71.9,42.8,29.91,WSW,250,5.0,13.0,35,0.00,,---,0.00,VWS V14.01,2013-06-21 02:29:00,
2013-06-20 19:30:00,71.8,42.7,29.91,West,261,3.0,13.0,35,0.00,,---,0.00,VWS V14.01,2013-06-21 02:30:00,
2013-06-20 19:34:00,71.7,42.6,29.91,WSW,238,4.0,11.0,35,0.00,,---,0.00,VWS V14.01,2013-06-21 02:34:00,
2013-06-20 19:35:00,71.6,42.5,29.91,SW,225,10.0,11.0,35,0.00,,---,0.00,VWS V14.01,2013-06-21 02:35:00,
2013-06-20 19:40:00,71.4,43.1,29.91,WSW,248,7.0,13.0,36,0.00,,---,0.00,VWS V14.01,2013-06-21 02:40:00,
2013-06-20 19:45:00,71.1,43.5,29.91,WSW,248,7.0,13.0,37,0.00,,---,0.00,VWS V14.01,2013-06-21 02:45:00,
2013-06-20 19:50:00,70.8,44.0,29.92,SW,225,8.0,14.0,38,0.00,,---,0.00,VWS V14.01,2013-06-21 02:50:00,
2013-06-20 19:55:00,70.5,43.7,29.91,West,270,7.0,16.0,38,0.00,,---,0.00,VWS V14.01,2013-06-21 02:55:00,
2013-06-20 20:00:00,70.1,44.0,29.92,SW,225,8.0,20.0,39,0.00,,---,0.00,VWS V14.01,2013-06-21 03:00:00,
2013-06-20 20:05:00,69.8,44.4,29.92,SW,225,8.0,18.0,40,0.00,,---,0.00,VWS V14.01,2013-06-21 03:05:00,
2013-06-20 20:10:00,69.5,44.8,29.92,SW,225,7.0,16.0,41,0.00,,---,0.00,VWS V14.01,2013-06-21 03:10:00,
2013-06-20 20:15:00,69.2,44.5,29.92,SW,225,7.0,14.0,41,0.00,,---,0.00,VWS V14.01,2013-06-21 03:15:00,
2013-06-20 20:20:00,68.8,44.8,29.92,WSW,248,5.0,10.0,42,0.00,,---,0.00,VWS V14.01,2013-06-21 03:20:00,
2013-06-20 20:25:00,68.5,45.1,29.92,SW,225,7.0,17.0,43,0.00,,---,0.00,VWS V14.01,2013-06-21 03:25:00,
2013-06-20 20:30:00,68.3,45.0,29.92,WSW,248,7.0,14.0,43,0.00,,---,0.00,VWS V14.01,2013-06-21 03:30:00,
2013-06-20 20:35:00,68.1,44.8,29.92,WSW,248,8.0,16.0,43,0.00,,---,0.00,VWS V14.01,2013-06-21 03:35:00,
2013-06-20 20:40:00,67.9,45.2,29.93,WSW,248,6.0,15.0,44,0.00,,---,0.00,VWS V14.01,2013-06-21 03:40:00,
2013-06-20 20:45:00,67.6,44.9,29.93,WSW,248,6.0,13.0,44,0.00,,---,0.00,VWS V14.01,2013-06-21 03:45:00,
2013-06-20 20:50:00,67.4,45.3,29.93,SW,225,6.0,13.0,45,0.00,,---,0.00,VWS V14.01,2013-06-21 03:50:00,
2013-06-20 20:55:00,67.2,45.2,29.92,SW,225,6.0,13.0,45,0.00,,---,0.00,VWS V14.01,2013-06-21 03:55:00,
2013-06-20 21:00:00,67.0,45.0,29.93,SW,225,6.0,13.0,45,0.00,,---,0.00,VWS V14.01,2013-06-21 04:00:00,
2013-06-20 21:05:00,66.8,44.8,29.93,SW,225,4.0,13.0,45,0.00,,---,0.00,VWS V14.01,2013-06-21 04:05:00,
2013-06-20 21:10:00,66.5,45.1,29.93,ESE,112,1.0,5.0,46,0.00,,---,0.00,VWS V14.01,2013-06-21 04:10:00,
2013-06-20 21:15:00,66.2,44.8,29.93,NNE,22,1.0,5.0,46,0.00,,---,0.00,VWS V14.01,2013-06-21 04:15:00,
2013-06-20 21:20:00,65.8,45.0,29.93,SE,135,0.0,1.0,47,0.00,,---,0.00,VWS V14.01,2013-06-21 04:20:00,
2013-06-20 21:25:00,65.4,44.7,29.93,NW,315,1.0,6.0,47,0.00,,---,0.00,VWS V14.01,2013-06-21 04:25:00,
2013-06-20 21:30:00,65.4,45.2,29.93,West,270,2.0,5.0,48,0.00,,---,0.00,VWS V14.01,2013-06-21 04:30:00,
2013-06-20 21:35:00,65.2,45.0,29.94,WSW,248,1.0,4.0,48,0.00,,---,0.00,VWS V14.01,2013-06-21 04:35:00,
2013-06-20 21:40:00,64.8,44.7,29.94,West,270,1.0,4.0,48,0.00,,---,0.00,VWS V14.01,2013-06-21 04:40:00,
2013-06-20 21:45:00,64.5,44.9,29.94,West,270,0.0,2.0,49,0.00,,---,0.00,VWS V14.01,2013-06-21 04:45:00,
2013-06-20 21:50:00,64.1,44.6,29.95,SW,225,1.0,2.0,49,0.00,,---,0.00,VWS V14.01,2013-06-21 04:50:00,
2013-06-20 21:55:00,63.7,44.7,29.95,SW,225,0.0,1.0,50,0.00,,---,0.00,VWS V14.01,2013-06-21 04:55:00,
2013-06-20 22:00:00,63.3,44.9,29.95,West,270,0.0,2.0,51,0.00,,---,0.00,VWS V14.01,2013-06-21 05:00:00,
2013-06-20 22:05:00,62.8,44.4,29.95,West,270,0.0,2.0,51,0.00,,---,0.00,VWS V14.01,2013-06-21 05:05:00,
2013-06-20 22:10:00,63.0,44.6,29.95,West,270,0.0,1.0,51,0.00,,---,0.00,VWS V14.01,2013-06-21 05:10:00,
2013-06-20 22:15:00,62.4,44.6,29.95,West,270,0.0,1.0,52,0.00,,---,0.00,VWS V14.01,2013-06-21 05:15:00,
2013-06-20 22:20:00,61.7,44.4,29.95,West,270,0.0,1.0,53,0.00,,---,0.00,VWS V14.01,2013-06-21 05:20:00,
2013-06-20 22:25:00,61.4,44.6,29.95,WSW,248,0.0,1.0,54,0.00,,---,0.00,VWS V14.01,2013-06-21 05:25:00,
2013-06-20 22:30:00,60.6,44.4,29.95,West,270,0.0,1.0,55,0.00,,---,0.00,VWS V14.01,2013-06-21 05:30:00,
2013-06-20 22:35:00,60.5,44.7,29.95,West,270,0.0,2.0,56,0.00,,---,0.00,VWS V14.01,2013-06-21 05:35:00,
2013-06-20 22:40:00,60.0,44.3,29.95,WSW,248,1.0,2.0,56,0.00,,---,0.00,VWS V14.01,2013-06-21 05:40:00,
2013-06-20 22:45:00,59.3,44.5,29.95,WSW,248,0.0,1.0,58,0.00,,---,0.00,VWS V14.01,2013-06-21 05:45:00,
2013-06-20 22:50:00,58.9,44.2,29.95,West,270,0.0,1.0,58,0.00,,---,0.00,VWS V14.01,2013-06-21 05:50:00,
2013-06-20 22:55:00,58.9,44.6,29.95,West,270,1.0,2.0,59,0.00,,---,0.00,VWS V14.01,2013-06-21 05:55:00,
2013-06-20 23:00:00,59.0,44.7,29.95,West,270,0.0,2.0,59,0.00,,---,0.00,VWS V14.01,2013-06-21 06:00:00,
2013-06-20 23:05:00,58.9,44.6,29.95,WSW,248,1.0,2.0,59,0.00,,---,0.00,VWS V14.01,2013-06-21 06:05:00,
2013-06-20 23:10:00,58.4,44.6,29.95,SW,225,0.0,1.0,60,0.00,,---,0.00,VWS V14.01,2013-06-21 06:10:00,
2013-06-20 23:15:00,57.8,44.5,29.95,SW,225,0.0,1.0,61,0.00,,---,0.00,VWS V14.01,2013-06-21 06:15:00,
2013-06-20 23:20:00,57.4,44.1,29.95,SW,225,0.0,0.0,61,0.00,,---,0.00,VWS V14.01,2013-06-21 06:20:00,
2013-06-20 23:25:00,57.1,44.2,29.95,SW,225,0.0,0.0,62,0.00,,---,0.00,VWS V14.01,2013-06-21 06:25:00,
2013-06-20 23:30:00,57.1,44.2,29.95,West,270,0.0,2.0,62,0.00,,---,0.00,VWS V14.01,2013-06-21 06:30:00,
2013-06-20 23:35:00,56.7,44.3,29.95,WSW,248,0.0,1.0,63,0.00,,---,0.00,VWS V14.01,2013-06-21 06:35:00,
2013-06-20 23:40:00,56.4,44.4,29.95,WSW,248,0.0,1.0,64,0.00,,---,0.00,VWS V14.01,2013-06-21 06:40:00,
2013-06-20 23:45:00,56.3,44.3,29.95,WSW,248,0.0,1.0,64,0.00,,---,0.00,VWS V14.01,2013-06-21 06:45:00,
2013-06-20 23:50:00,56.1,44.1,29.95,WSW,248,0.0,1.0,64,0.00,,---,0.00,VWS V14.01,2013-06-21 06:50:00,
2013-06-20 23:55:00,56.0,44.4,29.95,WSW,248,0.0,1.0,65,0.00,,---,0.00,VWS V14.01,2013-06-21 06:55:00,